Regional Weather Roundup
Issued by NWS Portland, ME

Current Version | Previous Version | Text Only | Print | Product List | Glossary Off
Versions: 1 2 3 4 5 6 7 8 9 10 11 12 13 14 15 16 17 18 19 20 21 22 23 24 25 26 27 28 29 30 31 32 33 34 35 36 37 38 39 40 41 42 43 44 45 46 47 48 49 50

000
ASUS41 KGYX 242305
RWRGYX
WEATHER ROUNDUP FOR MAINE AND NEW HAMPSHIRE
NATIONAL WEATHER SERVICE GRAY ME
700 PM EDT FRI APR 24 2015

MEZ002-005-006-010-012-015-018-020-021-024-026-027-029-250000-
MAINE

CITY           SKY/WX    TMP DP  RH WIND       PRES   REMARKS
PORTLAND       MOCLDY    43  25  49 NW12G26   29.71R
SANFORD        PTCLDY    39  21  48 NW15G26   29.73R
BAR HARBOR     PTCLDY    43  28  56 NW7G17    29.62R
WISCASSET      MOCLDY    41  23  48 NW9G20    29.70R
ROCKLAND       CLOUDY    43  25  49 NW7G17    29.65R
FRYEBURG       CLOUDY    37  22  54 W10G18    29.73R
LEWISTONAUBURN CLOUDY    37  21  52 NW15G30   29.71R
AUGUSTA        MOCLDY    37  22  54 NW17G25   29.69R
WATERVILLE     CLOUDY    36  23  60 W17G23    29.66R
BANGOR         MOCLDY    39  28  64 NW15G23   29.64R
GREENVILLE       N/A     31  26  82 NW10G20   29.58S
MILLINOCKET    CLOUDY    39  29  67 W10G16    29.61R
HOULTON        LGT RAIN  36  34  92 NW3       29.54R
PRESQUE ISLE   CLOUDY    36  30  80 NW6       29.54R
FRENCHVILLE    LGT SNOW  33  32  96 NW8       29.52R FOG
CARIBOU        LGT RAIN  36  33  89 NW6       29.52S
$$

NHZ002-005-008-009-011-012-014-250000-
NEW HAMPSHIRE

CITY           SKY/WX    TMP DP  RH WIND       PRES   REMARKS
PORTSMOUTH     MOCLDY    44  22  43 NW18      29.71R
ROCHESTER      PTCLDY    41  21  44 NW23G32   29.72R
NASHUA         MOCLDY    45  21  38 NW18G26   29.76R
MANCHESTER     MOCLDY    44  20  38 NW13G23   29.73R
CONCORD        CLOUDY    42  22  44 N13G21    29.75R
LACONIA        CLOUDY    39  19  45 W12G22    29.75R
PLYMOUTH       CLOUDY    37  27  65 NW8G24    29.77R
BERLIN         CLOUDY    33  21  61 NW7G17    29.72S
WHITEFIELD     CLOUDY    33  23  66 W9        29.75R
JAFFREY        CLOUDY    39  19  44 NW9       29.75R
KEENE          CLOUDY    41  19  42 W9G20     29.78R
LEBANON        CLOUDY    39  22  50 NW10G22   29.78R
MT WASHINGTON  SNOW      10  10 100 NW58        N/A  VSB 0   WCI -18
$$

VTZ005-007-008-250000-
VERMONT

CITY           SKY/WX    TMP DP  RH WIND       PRES   REMARKS
ST JOHNSBURY     N/A     35  23  61 MISG      29.77R
MONTPELIER     CLOUDY    33  20  58 NW10      29.82R
BURLINGTON     CLOUDY    39  20  46 NW12G22   29.83R
$$

MAZ007-012-024-CTZ003-RIZ002-NYZ038-NYZ072-250000-
SOUTHERN NEW ENGLAND AND NY

CITY           SKY/WX    TMP DP  RH WIND       PRES   REMARKS
BOSTON         MOCLDY    46  21  37 NW17      29.75R
WORCESTER      CLOUDY    39  21  48 NW12      29.75R
NANTUCKET      CLEAR     45  32  60 W15       29.72R
PROVIDENCE     MOCLDY    45  21  38 NW17G24   29.77R
HARTFORD       MOCLDY    42  20  41 NW14G31   29.83R
ALBANY         MOCLDY    39  18  42 W20G25    29.89R
NEW YORK CITY  PTCLDY    46  21  37 NW24G33   29.87R
$$

ANZ081-ANZ082-ANZ150-NHZ014-MEZ023>029-250000-
COASTAL MARINE OBSERVATIONS

STATION/POSITION TIME  TEMP    WIND        PRES    WAVE
                       AIR SEA DIR/SP/G            HT/PER
                 (UTC) (F)     (DEG/KT/KT) (MB)    (FT/S)
$$

.............KEY..............
   WCI - WIND CHILL
   TC  - TEMPERATURE IN CELSIUS
   VSB - VISIBILITY IN MILES
   HX  - HEAT INDEX
   FAIR- INDICATES FEW OR NO CLOUDS BELOW 12,000 FT, WITH NO
         SIGNIFICANT WEATHER AND/OR OBSTRUCTIONS TO VISIBILITY.





USA.gov is the U.S. government's official web portal to all federal, state and local government web resources and services.